Weather History for Guatemala Aeropuertola Aurora, Guatemala

Change the Weather History Date:

Monday, January 6, 2014

  Actual Average Record
Temperature  
Mean Temperature 66 °F -  
Max Temperature 77 °F 72 °F - ()
Min Temperature 56 °F 54 °F - ()
Cooling Degree Days 2    
Growing Degree Days 16 (Base 50)    
Moisture  
Dew Point 50 °F    
Average Humidity 65    
Maximum Humidity 100    
Minimum Humidity 25    
Precipitation  
Precipitation 0.00 in - - ()
Sea Level Pressure  
Sea Level Pressure 30.28 in    
Wind  
Wind Speed 11 mph ()    
Max Wind Speed 25 mph    
Max Gust Speed -    
Visibility 5.3 miles    
Events      
T = Trace of Precipitation, MM = Missing Value Source: Averaged Metar Reports

Daily Weather History Graph

Daily Weather History Graph

Search for Another Location

Airport:

Trip Planner

Search our weather history database for the weather conditions in past years. The results will help you decide how hot, cold, wet, or windy it might be!

Date:

Astronomy

Jan. 06, 2014 Rise Set
Actual Time 6:28 AM CST 5:47 PM CST
Civil Twilight 6:05 AM CST 6:10 PM CST
Nautical Twilight 5:39 AM CST 6:36 PM CST
Astronomical Twilight 5:12 AM CST 7:03 PM CST
Moon 10:44 AM CST (1/6) 11:14 PM CST (1/6)
Length of Visible Light 12h 04m
Length of Day
11h 18m
Waxing Crescent, 35% of the Moon is Illuminated
Jan 6
Waxing Crescent
Jan 7
First Quarter
Jan 15
Full
Jan 23
Last Quarter
Jan 30
New

Hourly Weather History & Observations

Time (CST) Temp. Dew Point Humidity Pressure Visibility Wind Dir Wind Speed Gust Speed Precip Events Conditions
12:00 AM 60.8 °F 57.2 °F 88% 30.27 in - Calm Calm - N/A   Clear
1:00 AM 59.0 °F 57.2 °F 94% 30.27 in 6.2 mi North 11.5 mph - N/A   Mostly Cloudy
2:00 AM 59.0 °F 59.0 °F 100% 30.27 in 6.2 mi North 4.6 mph - N/A   Mostly Cloudy
2:10 AM - - N/A% - - North - - N/A   Unknown
3:00 AM 60.8 °F 57.2 °F 88% 30.27 in 5.0 mi NNE 9.2 mph - N/A   Overcast
4:00 AM 59.0 °F 55.4 °F 88% 30.27 in 6.2 mi NNE 6.9 mph - N/A   Partly Cloudy
5:00 AM 57.2 °F 55.4 °F 94% 30.27 in 6.2 mi NNE 9.2 mph - N/A   Partly Cloudy
6:00 AM 57 °F 56 °F 93% 29.98 in 2 mi NNE 9.2 mph - -   Mist
6:00 AM 57.2 °F 55.4 °F 94% 30.27 in 2.5 mi NNE 9.2 mph - N/A   Scattered Clouds
6:10 AM - - N/A% - 3.1 mi North 9.2 mph - N/A   Mostly Cloudy
6:45 AM - - N/A% - 6.2 mi NNE 13.8 mph - N/A   Scattered Clouds
7:00 AM 57.2 °F 55.4 °F 94% 30.30 in 6.2 mi NNE 13.8 mph - N/A   Scattered Clouds
8:00 AM 60.8 °F 57.2 °F 88% 30.33 in - NNE 13.8 mph - N/A   Clear
9:00 AM 64.4 °F 51.8 °F 64% 30.33 in - NNE 13.8 mph - N/A   Clear
10:00 AM 69.8 °F 42.8 °F 38% 30.33 in - NNE 18.4 mph - N/A   Clear
11:00 AM 73.4 °F 37.4 °F 27% 30.33 in - NNE 20.7 mph - N/A   Clear
12:00 PM 75.2 °F 37.4 °F 25% 30.30 in - NNE 23.0 mph - N/A   Clear
1:00 PM 75.2 °F 37.4 °F 25% 30.27 in - North 23.0 mph - N/A   Partly Cloudy
2:00 PM 77.0 °F 39.2 °F 26% 30.24 in 6.2 mi NNW 25.3 mph - N/A   Partly Cloudy
3:00 PM 75.2 °F 44.6 °F 34% 30.24 in 6.2 mi North 23.0 mph - N/A   Partly Cloudy
4:00 PM 73.4 °F 46.4 °F 38% 30.24 in 6.2 mi North 18.4 mph - N/A   Partly Cloudy
5:00 PM 69.8 °F 48.2 °F 46% 30.27 in 6.2 mi North 20.7 mph - N/A   Partly Cloudy
6:00 PM 66.2 °F 50.0 °F 56% 30.27 in - North 20.7 mph - N/A   Clear
7:00 PM 64.4 °F 50.0 °F 59% 30.30 in - North 20.7 mph - N/A   Clear
8:00 PM 62.6 °F 50.0 °F 63% 30.33 in - North 20.7 mph - N/A   Clear
9:00 PM 62.6 °F 50.0 °F 63% 30.36 in 3.7 mi North 16.1 mph - N/A   Clear
10:00 PM 62.6 °F 51.8 °F 68% 30.39 in 6.2 mi North 18.4 mph - N/A   Partly Cloudy
11:00 PM 60.8 °F 51.8 °F 72% 30.39 in 6.2 mi North 13.8 mph - N/A   Partly Cloudy